Frederick, OK

10:05 PM CDT on September 19, 2017 (GMT -0500)
Frederick Municipal

Weather History for KFDR - September, 2013

Change the Weather History Date:

Wednesday, September 25, 2013

  Actual Average (KLTS) Record (KLTS)
Temperature  
Mean Temperature 76 °F -  
Max Temperature 93 °F 81 °F 98 °F (1998)
Min Temperature 60 °F 57 °F 41 °F (2000)
Cooling Degree Days 12    
Growing Degree Days 26 (Base 50)    
Moisture  
Dew Point 50 °F    
Average Humidity 41    
Maximum Humidity 67    
Minimum Humidity 21    
Precipitation  
Precipitation 0.00 in - - ()
Sea Level Pressure  
Sea Level Pressure 29.77 in    
Wind  
Wind Speed 6 mph (SE)    
Max Wind Speed 17 mph    
Max Gust Speed 23 mph    
Visibility 10 miles    
Events      
Averages and records for this station are not official NWS values.
T = Trace of Precipitation, MM = Missing Value Source: NWS Daily Summary

Daily Weather History Graph

Daily Weather History Graph

Search for Another Location

Airport or City:

Trip Planner

Search our weather history database for the weather conditions in past years. The results will help you decide how hot, cold, wet, or windy it might be!

Date:

Astronomy

Sep. 25, 2013 Rise Set
Actual Time 7:26 AM CDT 7:28 PM CDT
Civil Twilight 7:01 AM CDT 7:53 PM CDT
Nautical Twilight 6:32 AM CDT 8:22 PM CDT
Astronomical Twilight 6:02 AM CDT 8:51 PM CDT
Moon 11:49 PM CDT (9/25) 1:19 PM CDT (9/25)
Length of Visible Light 12h 51m
Length of Day
12h 01m
Waning Gibbous, 64% of the Moon is Illuminated
Sep 25
Waning Gibbous
Sep 26
Last Quarter
Oct 4
New
Oct 11
First Quarter
Oct 18
Full

Hourly Weather History & Observations

Time (CDT) Temp. Heat Index Dew Point Humidity Pressure Visibility Wind Dir Wind Speed Gust Speed Precip Events Conditions
12:53 AM 68.0 °F - 44.1 °F 42% 29.84 in 10.0 mi ENE 3.5 mph - N/A   Clear
1:53 AM 66.0 °F - 46.9 °F 50% 29.83 in 10.0 mi Calm Calm - N/A   Clear
2:53 AM 64.0 °F - 46.0 °F 52% 29.84 in 10.0 mi Calm Calm - N/A   Clear
3:53 AM 63.0 °F - 46.9 °F 56% 29.83 in 10.0 mi NW 3.5 mph - N/A   Clear
4:53 AM 63.0 °F - 46.9 °F 56% 29.82 in 10.0 mi Calm Calm - N/A   Clear
5:53 AM 60.1 °F - 48.9 °F 67% 29.83 in 10.0 mi NNE 8.1 mph - N/A   Clear
6:53 AM 61.0 °F - 46.9 °F 60% 29.83 in 10.0 mi ENE 9.2 mph - N/A   Clear
7:53 AM 60.1 °F - 48.0 °F 64% 29.85 in 10.0 mi NE 3.5 mph - N/A   Clear
8:53 AM 66.9 °F - 46.9 °F 49% 29.85 in 10.0 mi ENE 8.1 mph - N/A   Clear
9:53 AM 73.0 °F - 48.0 °F 41% 29.86 in 10.0 mi East 6.9 mph - N/A   Clear
10:53 AM 80.1 °F - 46.9 °F 31% 29.86 in 10.0 mi SSE 4.6 mph - N/A   Clear
11:53 AM 84.9 °F - 45.0 °F 25% 29.83 in 10.0 mi South 8.1 mph - N/A   Clear
12:53 PM 89.1 °F - 48.9 °F 25% 29.80 in 10.0 mi SSW 10.4 mph 18.4 mph N/A   Clear
1:53 PM 91.9 °F - 50.0 °F 24% 29.76 in 10.0 mi South 11.5 mph 19.6 mph N/A   Clear
2:53 PM 93.0 °F - 48.9 °F 22% 29.72 in 10.0 mi South 16.1 mph 20.7 mph N/A   Clear
3:53 PM 93.0 °F - 48.0 °F 21% 29.70 in 10.0 mi South 13.8 mph 23.0 mph N/A   Clear
4:53 PM 93.0 °F - 48.9 °F 22% 29.69 in 10.0 mi South 16.1 mph 20.7 mph N/A   Clear
5:53 PM 91.9 °F 89.5 °F 53.1 °F 27% 29.68 in 10.0 mi South 17.3 mph - N/A   Clear
6:53 PM 90.0 °F 87.7 °F 54.0 °F 29% 29.67 in 10.0 mi SSE 13.8 mph - N/A   Clear
7:53 PM 84.0 °F 82.9 °F 55.0 °F 37% 29.67 in 10.0 mi SSE 10.4 mph - N/A   Clear
8:53 PM 80.1 °F 80.1 °F 55.0 °F 42% 29.67 in 10.0 mi SE 10.4 mph - N/A   Clear
9:53 PM 78.1 °F - 55.9 °F 46% 29.68 in 10.0 mi SE 11.5 mph - N/A   Clear
10:53 PM 77.0 °F - 57.0 °F 50% 29.68 in 10.0 mi SE 10.4 mph - N/A   Clear
11:53 PM 75.0 °F - 57.0 °F 53% 29.69 in 10.0 mi SE 8.1 mph - N/A   Clear